Home   Weather   Toowoomba   Past weeks

Flag for Australia Past Weather in Toowoomba, Queensland, Australia — Yesterday and Last 2 Weeks

Now
79 °F

Warm.


Feels Like: 82 °F
Forecast: 68 / 96 °F
Wind: 8 mph from East

Location: Oakey Aerodrome

Current Time: Dec 6, 2016 at 2:50:48 am

Latest Report: Dec 6, 2016 at 1:00 am


Visibility: N/A

Pressure: 29.85 "Hg (27.88 "Hg at 597m altitude)

Humidity: 66%

Dew Point: 67 °F

Location of ToowoombaLocation

Past Weather in Toowoomba — Graph

°F

Toowoomba Temperature Yesterday

Maximum temperature yesterday: 99 °F (at 4:00 pm)
Minimum temperature yesterday: 72 °F (at 4:00 am)
Average temperature yesterday: 85 °F

High & Low Weather Summary for the Past Weeks

 TemperatureHumidityPressure
High100 °F (Dec 3, 4:00 pm)93% (Nov 29, 4:00 am)30.10 "Hg (Nov 29, 4:00 am)
Low54 °F (Nov 22, 4:00 am)5% (Nov 24, 1:00 pm)29.66 "Hg (Dec 1, 4:00 pm)
Average75 °F56%29.89 "Hg
* Reported Nov 21 1:00 am — Dec 6 1:00 am, Toowoomba, Weather by CustomWeather, © 2016

Note: Actual official high and low records may vary slightly from our data, if they occured in-between our weather recording intervals... More about our weather records

Advertising

Toowoomba Weather History for the Previous 24 Hours

Scroll right to see more
 ConditionsComfort  
Time TempWeatherWind HumidityBarometerVisibility
1:00 am
Tue, Dec 6
79 °FWarm.8 mph66%29.85 "HgN/A
12:00 am81 °FOvercast.10 mph61%29.85 "HgN/A
10:00 pm
Mon, Dec 5
84 °FWarm.10 mph53%29.84 "HgN/A
9:00 pm86 °FWarm.8 mph48%29.84 "HgN/A
7:00 pm88 °FHot.7 mph38%29.80 "HgN/A
6:00 pm96 °FExtremely hot.10 mph27%29.80 "HgN/A
4:00 pm99 °FExtremely hot.9 mph23%29.79 "HgN/A
3:00 pm98 °FExtremely hot.8 mph27%29.81 "HgN/A
1:00 pm96 °FExtremely hot.14 mph30%29.85 "HgN/A
12:00 pm94 °FExtremely hot.15 mph33%29.89 "HgN/A
10:00 am90 °FHot.15 mph44%29.93 "HgN/A
9:00 am87 °FWarm.6 mph46%29.94 "HgN/A
7:00 am78 °FWarm.9 mph65%29.96 "HgN/A
6:00 am74 °FMild.9 mph78%29.94 "HgN/A
4:00 am72 °FMild.9 mph81%29.91 "HgN/A
3:00 am73 °FMild.10 mph79%29.90 "HgN/A
Weather by CustomWeather, © 2016

See weather overviewHow to use our weather pages